User: anonymous   Login
Location: Unspecified
(0.0000°N, 0.0000°E)
Time: 07:31:12
(UTC+00:00)
Language:

USA 225 - Orbit

View from above orbital plane
View from above orbital plane
View from above satellite
View from above satellite

Ground track
Ground track

The orbit data is extracted from the following two-line orbital elements,

1 37364U 11006A   14013.71270803  .00000002  00000-0  50000-5 0    03
2 37364  90.0107  32.1378 0013119 273.4615  86.5013 13.11494704    06
Epoch (UTC): 13 January 2014 17:06:17
Eccentricity: 0.0013119
inclination: 90.0107°
perigee height: 1207 km
apogee height: 1227 km
right ascension of ascending node: 32.1378°
argument of perigee: 273.4615°
revolutions per day: 13.11494704
mean anomaly at epoch: 86.5013°
orbit number at epoch: 0

The dashed part of the orbit path shows where the satellite is in the earth's shadow,  

DLR